Location: Capelle
(50.3413°N, 1.9974°E)
Time: 07:12:45
(UTC+00:00)

USA 267 - Pass Details

Date: 12 January 2026
Orbit: 1101 x 1107 km, 123.0° (Epoch: 10 January)

Event Time Altitude Azimuth Distance (km) Brightness Sun altitude
Exits shadow 16:58:51 - 92° (E) 3,498 5.3 -7.2°
Reaches altitude 10° 17:00:16 10° 90° (E) 2,963 5.0 -7.4°
Maximum altitude 17:06:37 57° 14° (NNE) 1,287 3.5 -8.3°
Drops below altitude 10° 17:12:59 10° 298° (WNW) 2,964 6.1 -9.3°
Sets 17:15:30 0° 294° (WNW) 3,923 6.9 -9.6°
